TimeEDT,TemperatureF,Dew PointF,Humidity,Sea Level PressureIn,VisibilityMPH,Wind Direction,Wind SpeedMPH,Gust SpeedMPH,PrecipitationIn,Events,Conditions,WindDirDegrees,DateUTC
12:00 AM,8.6,-9999,N/A,29.99,9.0,East,8.1,-,N/A,,Clear,90,2012-10-11 04:00:00
1:00 AM,8.6,-9999,N/A,29.98,9.0,ENE,8.1,-,N/A,,Clear,70,2012-10-11 05:00:00
3:00 AM,8.6,-9999,N/A,29.95,9.0,East,10.4,-,N/A,,Clear,80,2012-10-11 07:00:00
4:00 AM,8.6,-9999,N/A,29.94,9.0,East,11.5,-,N/A,,Clear,90,2012-10-11 08:00:00
5:00 AM,5,,,29.93,9,East,13.8,,,,,100,2012-10-11 09:00:00
5:00 AM,5.0,-9999,N/A,29.93,9.0,East,15.0,-,N/A,,Clear,100,2012-10-11 09:00:00
5:58 AM,5.0,-9999,N/A,29.74,9.0,East,13.8,-,N/A,,Mostly Cloudy,80,2012-10-11 09:58:00
6:00 AM,5.0,-9999,N/A,29.91,9.0,East,13.8,-,N/A,,Mostly Cloudy,90,2012-10-11 10:00:00
6:12 AM,5.0,-9999,N/A,29.73,9.0,East,15.0,-,N/A,,Partly Cloudy,90,2012-10-11 10:12:00
6:26 AM,5.0,-9999,N/A,29.73,9.0,East,18.4,-,N/A,,Partly Cloudy,90,2012-10-11 10:26:00
7:00 AM,5.0,-9999,N/A,29.90,9.0,East,15.0,-,N/A,,Clear,90,2012-10-11 11:00:00
7:21 AM,6.8,-9999,N/A,29.72,9.0,East,17.3,-,N/A,,Clear,90,2012-10-11 11:21:00
8:00 AM,6,,,29.88,9,East,13.8,,,,,90,2012-10-11 12:00:00
8:00 AM,6.8,-9999,N/A,29.88,9.0,East,13.8,-,N/A,,Clear,80,2012-10-11 12:00:00
8:41 AM,8.6,-9999,N/A,29.71,9.0,East,12.7,-,N/A,,Mostly Cloudy,80,2012-10-11 12:41:00
9:00 AM,8.6,-9999,N/A,29.87,9.0,East,11.5,-,N/A,,Overcast,80,2012-10-11 13:00:00
9:41 AM,10.4,-9999,N/A,29.69,9.0,East,11.5,-,N/A,,Overcast,80,2012-10-11 13:41:00
10:00 AM,10.4,-9999,N/A,29.85,9.0,ENE,15.0,-,N/A,,Overcast,70,2012-10-11 14:00:00
10:14 AM,10.4,-9999,N/A,29.67,9.0,ENE,18.4,-,N/A,Snow,Light Snow,70,2012-10-11 14:14:00
10:16 AM,10.4,-9999,N/A,29.67,9.0,ENE,18.4,-,N/A,,Overcast,70,2012-10-11 14:16:00
10:20 AM,10.4,-9999,N/A,29.67,9.0,East,17.3,-,N/A,Snow,Light Snow,80,2012-10-11 14:20:00
10:24 AM,10.4,-9999,N/A,29.67,9.0,East,17.3,-,N/A,Snow,Light Snow,80,2012-10-11 14:24:00
10:29 AM,10.4,-9999,N/A,29.67,9.0,ENE,17.3,-,N/A,,Overcast,70,2012-10-11 14:29:00
10:36 AM,12.2,-9999,N/A,29.66,9.0,East,19.6,-,N/A,Snow,Light Snow,80,2012-10-11 14:36:00
11:00 AM,12,,,29.82,9,East,19.6,,,Snow,Light Snow,80,2012-10-11 15:00:00
11:00 AM,12.2,-9999,N/A,29.82,9.0,East,19.6,-,N/A,Snow,Light Snow,80,2012-10-11 15:00:00
11:57 AM,14.0,-9999,N/A,29.64,9.0,ENE,19.6,-,N/A,,Overcast,70,2012-10-11 15:57:00
12:00 PM,14.0,-9999,N/A,29.81,9.0,ENE,19.6,-,N/A,,Overcast,70,2012-10-11 16:00:00
12:05 PM,14.0,-9999,N/A,29.63,9.0,East,21.9,-,N/A,Snow,Light Snow,80,2012-10-11 16:05:00
12:24 PM,14.0,-9999,N/A,29.63,9.0,ENE,18.4,-,N/A,,Overcast,70,2012-10-11 16:24:00
1:00 PM,15.8,-9999,N/A,29.78,9.0,ENE,19.6,-,N/A,,Overcast,70,2012-10-11 17:00:00
1:39 PM,15.8,-9999,N/A,29.60,6.0,East,27.6,34.5,N/A,Snow,Light Snow,80,2012-10-11 17:39:00
1:41 PM,15.8,-9999,N/A,29.60,5.0,East,27.6,34.5,N/A,Snow,Light Snow,80,2012-10-11 17:41:00
1:46 PM,15.8,-9999,N/A,29.60,3.0,East,25.3,34.5,N/A,Snow,Light Snow,80,2012-10-11 17:46:00
1:53 PM,15.8,-9999,N/A,29.59,1.4,East,25.3,33.4,N/A,Snow,Light Snow,80,2012-10-11 17:53:00
2:00 PM,17,,,29.75,1,East,25.3,,,,Overcast,80,2012-10-11 18:00:00
2:00 PM,17.6,-9999,N/A,29.75,1.1,East,24.2,-,N/A,Snow,Light Snow,80,2012-10-11 18:00:00
2:15 PM,17.6,-9999,N/A,29.59,2.0,East,24.2,-,N/A,Snow,Light Snow,80,2012-10-11 18:15:00
2:34 PM,17.6,-9999,N/A,29.59,2.4,East,28.8,-,N/A,Snow,Light Snow,90,2012-10-11 18:34:00
2:35 PM,17.6,-9999,N/A,29.59,2.4,East,27.6,-,N/A,,Overcast,90,2012-10-11 18:35:00
2:52 PM,17.6,-9999,N/A,29.59,3.5,East,31.1,-,N/A,,Overcast,90,2012-10-11 18:52:00
2:55 PM,17.6,-9999,N/A,29.58,3.0,East,31.1,-,N/A,,Overcast,90,2012-10-11 18:55:00
3:00 PM,17.6,-9999,N/A,29.74,2.5,East,31.1,-,N/A,,Overcast,90,2012-10-11 19:00:00
3:10 PM,17.6,-9999,N/A,29.58,2.5,East,26.5,35.7,N/A,,Scattered Clouds,90,2012-10-11 19:10:00
3:15 PM,17.6,-9999,N/A,29.58,1.8,East,24.2,32.2,N/A,,Mostly Cloudy,80,2012-10-11 19:15:00
3:18 PM,17.6,-9999,N/A,29.58,1.4,East,26.5,-,N/A,,Mostly Cloudy,90,2012-10-11 19:18:00
3:27 PM,17.6,-9999,N/A,29.57,1.1,East,25.3,32.2,N/A,Snow,Light Snow,80,2012-10-11 19:27:00
3:29 PM,17.6,-9999,N/A,29.57,1.1,East,28.8,-,N/A,Snow,Light Snow,80,2012-10-11 19:29:00
3:49 PM,17.6,-9999,N/A,29.56,2.2,ENE,29.9,-,N/A,Snow,Light Snow,70,2012-10-11 19:49:00
4:00 PM,19.4,-9999,N/A,29.71,2.0,East,29.9,-,N/A,Snow,Light Snow,80,2012-10-11 20:00:00
4:08 PM,19.4,-9999,N/A,29.55,1.4,East,29.9,-,N/A,Snow,Light Snow,80,2012-10-11 20:08:00
4:15 PM,19.4,-9999,N/A,29.55,1.2,East,29.9,-,N/A,Snow,Light Snow,80,2012-10-11 20:15:00
4:16 PM,19.4,-9999,N/A,29.55,1.2,East,28.8,-,N/A,Snow,Light Snow,80,2012-10-11 20:16:00
4:52 PM,19.4,-9999,N/A,29.53,1.4,ENE,21.9,27.6,N/A,,Overcast,70,2012-10-11 20:52:00
4:57 PM,19.4,-9999,N/A,29.53,1.2,ENE,21.9,27.6,N/A,,Overcast,70,2012-10-11 20:57:00
4:58 PM,19.4,-9999,N/A,29.53,1.2,ENE,20.7,27.6,N/A,,Overcast,70,2012-10-11 20:58:00
5:00 PM,19,,,29.69,1,ENE,21.9,,,,Overcast,70,2012-10-11 21:00:00
5:00 PM,19.4,-9999,N/A,29.69,1.2,ENE,21.9,-,N/A,,Overcast,70,2012-10-11 21:00:00
5:03 PM,19.4,-9999,N/A,29.53,1.1,ENE,21.9,-,N/A,,Overcast,70,2012-10-11 21:03:00
5:09 PM,19.4,-9999,N/A,29.53,1.0,ENE,18.4,28.8,N/A,,Overcast,60,2012-10-11 21:09:00
5:18 PM,19.4,-9999,N/A,29.53,1.0,ENE,17.3,23.0,N/A,,Overcast,60,2012-10-11 21:18:00
5:25 PM,19.4,-9999,N/A,29.52,1.0,ENE,23.0,28.8,N/A,,Overcast,70,2012-10-11 21:25:00
5:30 PM,19.4,-9999,N/A,29.52,1.0,ENE,28.8,-,N/A,,Mostly Cloudy,70,2012-10-11 21:30:00
5:35 PM,19.4,-9999,N/A,29.51,1.1,ENE,29.9,36.8,N/A,,Mostly Cloudy,70,2012-10-11 21:35:00
5:36 PM,19.4,-9999,N/A,29.51,1.1,East,32.2,-,N/A,Snow,Light Snow,80,2012-10-11 21:36:00
5:38 PM,19.4,-9999,N/A,29.51,1.1,East,32.2,-,N/A,Snow,Light Snow,80,2012-10-11 21:38:00
5:41 PM,19.4,-9999,N/A,29.51,1.0,East,34.5,-,N/A,Snow,Light Snow,80,2012-10-11 21:41:00
5:44 PM,19.4,-9999,N/A,29.51,0.6,East,34.5,-,N/A,Snow,Light Snow,80,2012-10-11 21:44:00
5:48 PM,19.4,-9999,N/A,29.51,0.5,ENE,35.7,-,N/A,Snow,Light Snow,70,2012-10-11 21:48:00
5:50 PM,19.4,-9999,N/A,29.51,0.4,ENE,34.5,-,N/A,Snow,Light Snow,70,2012-10-11 21:50:00
6:00 PM,19.4,-9999,N/A,29.67,0.2,ENE,28.8,35.7,N/A,Snow,Light Snow,70,2012-10-11 22:00:00
6:07 PM,19.4,-9999,N/A,29.51,0.4,ENE,24.2,31.1,N/A,Snow,Light Snow,70,2012-10-11 22:07:00
6:10 PM,19.4,-9999,N/A,29.50,0.4,ENE,25.3,-,N/A,Snow,Light Snow,60,2012-10-11 22:10:00
6:15 PM,19.4,-9999,N/A,29.50,0.4,ENE,26.5,-,N/A,Snow,Light Snow,70,2012-10-11 22:15:00
6:16 PM,19.4,-9999,N/A,29.50,0.4,ENE,25.3,-,N/A,Snow,Light Snow,60,2012-10-11 22:16:00
6:17 PM,19.4,-9999,N/A,29.50,0.4,ENE,25.3,-,N/A,Snow,Light Snow,70,2012-10-11 22:17:00
6:19 PM,19.4,-9999,N/A,29.50,0.4,ENE,27.6,-,N/A,Snow,Light Snow,70,2012-10-11 22:19:00
6:23 PM,19.4,-9999,N/A,29.50,0.4,ENE,27.6,-,N/A,,Overcast,70,2012-10-11 22:23:00
6:27 PM,19.4,-9999,N/A,29.50,0.4,ENE,26.5,-,N/A,,Overcast,70,2012-10-11 22:27:00
6:32 PM,19.4,-9999,N/A,29.50,0.4,ENE,27.6,-,N/A,,Overcast,70,2012-10-11 22:32:00
6:33 PM,19.4,-9999,N/A,29.50,0.4,ENE,26.5,-,N/A,,Overcast,70,2012-10-11 22:33:00
6:34 PM,19.4,-9999,N/A,29.50,0.4,ENE,25.3,-,N/A,,Clear,70,2012-10-11 22:34:00
6:36 PM,19.4,-9999,N/A,29.50,0.4,ENE,24.2,-,N/A,,Clear,70,2012-10-11 22:36:00
6:48 PM,19.4,-9999,N/A,29.50,0.4,ENE,23.0,-,N/A,,Clear,70,2012-10-11 22:48:00
6:56 PM,19.4,-9999,N/A,29.50,0.4,ENE,28.8,-,N/A,,Overcast,70,2012-10-11 22:56:00
6:59 PM,19.4,-9999,N/A,29.49,0.4,ENE,29.9,-,N/A,,Overcast,70,2012-10-11 22:59:00
7:05 PM,21.2,-9999,N/A,29.49,0.4,ENE,33.4,-,N/A,Snow,Light Snow,70,2012-10-11 23:05:00
7:13 PM,21.2,-9999,N/A,29.49,0.4,ENE,33.4,-,N/A,Snow,Light Snow,70,2012-10-11 23:13:00
7:23 PM,21.2,-9999,N/A,29.49,0.4,ENE,35.7,-,N/A,Snow,Light Snow,70,2012-10-11 23:23:00
7:25 PM,21.2,-9999,N/A,29.49,0.4,ENE,33.4,-,N/A,Snow,Light Snow,70,2012-10-11 23:25:00
7:30 PM,21.2,-9999,N/A,29.48,0.4,ENE,34.5,-,N/A,Snow,Light Snow,70,2012-10-11 23:30:00
7:40 PM,21.2,-9999,N/A,29.48,0.4,ENE,34.5,-,N/A,Snow,Light Snow,70,2012-10-11 23:40:00
7:42 PM,21.2,-9999,N/A,29.48,0.4,ENE,36.8,-,N/A,Snow,Light Snow,70,2012-10-11 23:42:00
7:47 PM,21.2,-9999,N/A,29.48,0.4,East,36.8,-,N/A,Snow,Light Snow,80,2012-10-11 23:47:00
7:59 PM,21.2,-9999,N/A,29.47,0.4,East,35.7,42.6,N/A,Snow,Light Snow,80,2012-10-11 23:59:00
8:00 PM,21,,,29.63,0,East,34.5,,,,Overcast,80,2012-10-12 00:00:00
8:00 PM,21.2,-9999,N/A,29.63,0.4,East,36.8,42.6,N/A,Snow,Light Snow,80,2012-10-12 00:00:00
8:08 PM,21.2,-9999,N/A,29.47,0.2,East,33.4,42.6,N/A,Snow,Light Snow,80,2012-10-12 00:08:00
8:10 PM,21.2,-9999,N/A,29.47,0.2,East,34.5,42.6,N/A,Snow,Light Snow,80,2012-10-12 00:10:00
8:12 PM,21.2,-9999,N/A,29.47,0.1,East,33.4,41.4,N/A,Snow,Light Snow,80,2012-10-12 00:12:00
8:19 PM,21.2,-9999,N/A,29.46,0.1,East,35.7,-,N/A,Snow,Light Snow,80,2012-10-12 00:19:00
8:22 PM,21.2,-9999,N/A,29.47,0.1,East,34.5,-,N/A,Snow,Light Snow,80,2012-10-12 00:22:00
8:33 PM,21.2,-9999,N/A,29.46,0.1,East,35.7,44.9,N/A,Snow,Light Snow,80,2012-10-12 00:33:00
9:00 PM,23.0,-9999,N/A,29.62,0.1,East,36.8,44.9,N/A,Snow,Light Snow,80,2012-10-12 01:00:00
9:24 PM,23.0,-9999,N/A,29.46,0.1,East,35.7,-,N/A,Snow,Light Snow,80,2012-10-12 01:24:00
9:27 PM,23.0,-9999,N/A,29.46,0.1,East,38.0,43.7,N/A,Snow,Light Snow,80,2012-10-12 01:27:00
9:39 PM,23.0,-9999,N/A,29.46,0.1,ENE,36.8,-,N/A,Snow,Light Snow,70,2012-10-12 01:39:00
9:40 PM,23.0,-9999,N/A,29.46,0.1,East,34.5,-,N/A,Snow,Light Snow,80,2012-10-12 01:40:00
9:41 PM,23.0,-9999,N/A,29.46,0.1,ENE,35.7,-,N/A,Snow,Light Snow,70,2012-10-12 01:41:00
9:46 PM,23.0,-9999,N/A,29.46,0.2,East,39.1,46.0,N/A,Snow,Light Snow,80,2012-10-12 01:46:00
9:49 PM,23.0,-9999,N/A,29.46,0.2,ENE,38.0,46.0,N/A,Snow,Light Snow,70,2012-10-12 01:49:00
9:55 PM,23.0,-9999,N/A,29.46,0.2,ENE,38.0,-,N/A,Snow,Light Snow,70,2012-10-12 01:55:00
10:00 PM,23.0,-9999,N/A,29.60,0.4,East,39.1,-,N/A,Snow,Light Snow,80,2012-10-12 02:00:00
10:06 PM,23.0,-9999,N/A,29.45,0.4,East,40.3,-,N/A,Snow,Light Snow,80,2012-10-12 02:06:00
10:14 PM,23.0,-9999,N/A,29.44,0.2,East,34.5,46.0,N/A,Snow,Light Snow,80,2012-10-12 02:14:00
10:17 PM,23.0,-9999,N/A,29.44,0.2,East,34.5,41.4,N/A,Snow,Light Snow,80,2012-10-12 02:17:00
10:20 PM,23.0,-9999,N/A,29.44,0.2,East,33.4,40.3,N/A,Snow,Light Snow,80,2012-10-12 02:20:00
10:30 PM,23.0,-9999,N/A,29.44,0.2,East,33.4,-,N/A,Snow,Light Snow,80,2012-10-12 02:30:00
10:44 PM,23.0,-9999,N/A,29.43,0.1,East,32.2,-,N/A,Snow,Light Snow,90,2012-10-12 02:44:00
11:00 PM,24,,,29.57,0,East,35.7,,,Snow,Light Snow,80,2012-10-12 03:00:00
11:00 PM,24.8,-9999,N/A,29.57,0.1,East,35.7,-,N/A,Snow,Light Snow,90,2012-10-12 03:00:00
11:33 PM,24.8,-9999,N/A,29.41,0.1,East,44.9,50.6,N/A,Snow,Light Snow,80,2012-10-12 03:33:00
11:35 PM,23.0,-9999,N/A,29.41,0.1,East,42.6,54.1,N/A,Snow,Light Snow,80,2012-10-12 03:35:00
11:42 PM,23.0,-9999,N/A,29.41,0.1,East,44.9,57.5,N/A,Snow,Light Snow,80,2012-10-12 03:42:00
11:50 PM,23.0,-9999,N/A,29.41,0.1,East,43.7,49.5,N/A,Snow,Light Snow,80,2012-10-12 03:50:00
11:53 PM,23.0,-9999,N/A,29.41,0.1,East,42.6,49.5,N/A,Snow,Light Snow,80,2012-10-12 03:53:00
11:59 PM,23.0,-9999,N/A,29.41,0.1,East,39.1,50.6,N/A,Snow,Light Snow,80,2012-10-12 03:59:00